HOOPOE (42718 NORAD) Tracking and Keplerian Element Data

This shows tracking and keplerian element data for the satellite.

Feedback or suggestion? Click here.




ElementValue
Catalog42718
NameHOOPOE
Epoch Orbit7598
Epoch Day263.24695421
Epoch Year2018
RAAN222.6452
Inclination51.6266
Eccentricity0.0001438
Argument of Perigee123.6487
Mean Anonmoly236.4652
Mean Motion15.81728129
Decay Rate0.00050428
L11 42718U 98067LZ 18263.24695421 .00050428 00000-0 24714-3 0 9995
L22 42718 51.6266 222.6452 0001438 123.6487 236.4652 15.81728129 75981

Live tracking and technical data element details for HOOPOE (NORAD 42718). HOOPOE can be tracked NOW for your location showing map with azimuth and elevation plus other details from your city location.

Track the satellite on the map from your city or location and see movement details for azimuth, elevation, latitude, longitude, range, height, and movement on the map or in text.







IsCatalogInMostPopularTable: catalog: 42718, numindb: 131
Update: records affected: 1



GetName: 42718 HOOPOE

Hit Count: updated at: Sat, 22 Sep 2018 14:59:36 GMT